ニオワイズ彗星

C/2014 C3 ( NEOWISE )

English version
Home page
Updated on May 26, 2021

---------------------------------------------------------------------

・ プロフィール

発見日 2014年2月14日
発見光度
発見者 Near-Earth Object Wide-field Infrared Survey Explorer

・ 写真集

・ 軌道要素

Epoch 2014 Jan. 23.0 TT = JDT 2456680.5
T 2014 Jan. 16.72451 TT                                 MPC
q   1.8620016            (2000.0)            P               Q
z  +0.0092096      Peri.  345.87425     -0.79423626     -0.57534516
 +/-0.0000224      Node   204.40689     -0.50142910     +0.43905072
e   0.9828518      Incl.  151.78451     -0.34315830     +0.69008146
From 550 observations 2014 Feb. 14-May 19, mean residual 0".5.

・ 星図

・ 光度変化

        m1 = 13.0 + 5 logΔ + 10.0 log r

---------------------------------------------------------------------

軌道要素はM.P.E.C. 2014-T44に掲載されたものです。
光度グラフはComet for Windowsで作成したものです。

---------------------------------------------------------------------

Copyright(C) Seiichi Yoshida (comet@aerith.net). All rights reserved.